DW9558 Weather Reports


Display with metric or nautical units.
time (UTC)temp
F
wind
direction
speed
MPH
gust
MPH
rain 1hr
in
rain 24hr
in
rain mn
in
humidity
%
barometer
mb
20260503231521 67 200 2.0 4.0 0.00 0.00 0.00 57 1017.5
20260503230021 67 203 1.0 7.0 0.00 0.00 0.00 57 1017.4
20260503224519 67 235 1.0 11.0 0.00 0.00 0.00 56 1017.2
20260503223018 67 179 3.0 9.0 0.00 0.00 0.00 57 1017.3
20260503221518 67 185 3.0 9.0 0.00 0.00 0.00 57 1017.2
20260503220018 67 194 3.0 8.0 0.00 0.00 0.00 59 1017.4
20260503214517 67 193 2.0 9.0 0.00 0.00 0.00 59 1017.5
20260503213019 66 188 2.0 9.0 0.00 0.00 0.00 59 1017.6
20260503211516 66 186 3.0 7.0 0.00 0.00 0.00 60 1017.7
20260503210016 66 192 1.0 9.0 0.00 0.00 0.00 58 1018.0
20260503204520 67 198 2.0 12.0 0.00 0.00 0.00 58 1017.8
20260503203014 66 202 2.0 10.0 0.00 0.00 0.00 59 1018.1
20260503201510 65 194 3.0 10.0 0.00 0.00 0.00 60 1017.9
20260503200009 65 188 2.0 16.0 0.00 0.00 0.00 61 1017.9
20260503194506 64 157 3.0 10.0 0.00 0.00 0.00 61 1018.1
20260503193008 64 155 4.0 10.0 0.00 0.00 0.00 60 1018.1
20260503191502 63 246 3.0 9.0 0.00 0.00 0.00 62 1018.3
20260503190106 63 246 3.0 9.0 0.00 0.00 0.00 62 1018.4
20260503184558 62 250 2.0 14.0 0.00 0.00 0.00 63 1018.3
20260503183112 61 253 3.0 9.0 0.00 0.00 0.00 65 1018.2
20260503181619 61 254 3.0 9.0 0.00 0.00 0.00 66 1018.3
20260503180053 61 266 3.0 8.0 0.00 0.00 0.00 66 1018.4
20260503174548 60 267 2.0 11.0 0.00 0.00 0.00 69 1018.3
20260503173054 59 269 2.0 8.0 0.00 0.00 0.00 70 1018.4
20260503171544 59 271 2.0 9.0 0.00 0.00 0.00 71 1018.2
20260503100106 54 294 1.0 7.0 0.00 0.00 0.00 81 1015.3
20260503081541 54 294 0.0 2.0 0.00 0.00 0.00 81 1016.4
20260503071537 55 294 0.0 3.0 0.00 0.00 0.00 79 1016.7
20260503054539 56 294 0.0 3.0 0.00 0.00 0.00 77 1016.8
20260503053030 57 294 0.0 4.0 0.00 0.00 0.00 77 1016.8
20260503051529 57 294 0.0 12.0 0.00 0.00 0.00 76 1016.9
20260503050030 57 294 0.0 7.0 0.00 0.00 0.00 74 1016.8
20260503044535 58 294 0.0 7.0 0.00 0.00 0.00 73 1016.6
20260503043028 58 294 1.0 8.0 0.00 0.00 0.00 72 1016.5
20260503041528 58 294 2.0 8.0 0.00 0.00 0.00 71 1016.4
20260503040029 59 294 0.0 3.0 0.00 0.00 0.00 71 1016.3
20260503034528 59 294 0.0 8.0 0.00 0.00 0.00 70 1016.1
20260503033027 60 294 0.0 5.0 0.00 0.00 0.00 70 1016.1
20260503031527 61 294 1.0 5.0 0.00 0.00 0.00 70 1015.9
20260503030026 62 294 1.0 7.0 0.00 0.00 0.00 69 1015.8
20260503024526 62 294 1.0 4.0 0.00 0.00 0.00 69 1015.8
20260503023024 63 294 0.0 11.0 0.00 0.00 0.00 68 1015.8
20260503021524 64 296 1.0 4.0 0.00 0.00 0.00 66 1015.7
20260503020024 64 296 2.0 5.0 0.00 0.00 0.00 65 1015.6
20260503014523 65 296 3.0 8.0 0.00 0.00 0.00 64 1015.7
20260503013026 66 296 3.0 8.0 0.00 0.00 0.00 63 1015.7
20260503011524 67 296 2.0 7.0 0.00 0.00 0.00 63 1015.6
20260503010022 68 296 1.0 8.0 0.00 0.00 0.00 62 1015.6
20260503004522 68 296 1.0 7.0 0.00 0.00 0.00 62 1015.6
20260503003022 69 296 1.0 8.0 0.00 0.00 0.00 61 1015.5
20260503001520 69 296 1.0 7.0 0.00 0.00 0.00 59 1015.6
20260503000019 70 296 1.0 5.0 0.00 0.00 0.00 58 1015.7
20260502234517 70 296 0.0 8.0 0.00 0.00 0.00 60 1015.9
20260502233019 70 296 2.0 7.0 0.00 0.00 0.00 59 1016.0